This is the latest recevied weather packets stored in our database for station/object KD7CIH. If no packets are shown the sender has not sent any weather packets the latest 10 day(s).
| Time | Temp. | Humidity | Pressure | Rain* | Wind** | Luminosity | Snow |
|---|---|---|---|---|---|---|---|
| 1777959661 | 7.78° C | 69% | 1006 hPa | 0 mm | - | - | - |
| 1777959363 | 7.78° C | 71% | 1005.9 hPa | 0.25 mm | - | - | - |
| 1777959146 | 8.33° C | 68% | 1006.1 hPa | 0.25 mm | - | - | - |
| 1777958758 | 8.33° C | 70% | 1006.3 hPa | 0.25 mm | - | - | - |
| 1777958457 | 8.33° C | 70% | 1006 hPa | 0.25 mm | - | - | - |
| 1777958158 | 8.33° C | 70% | 1005.9 hPa | 0.25 mm | - | - | - |
| 1777957858 | 8.33° C | 69% | 1006 hPa | 0.25 mm | - | - | - |
| 1777957558 | 8.33° C | 69% | 1006.1 hPa | 0.25 mm | - | - | - |
| 1777957340 | 8.33° C | 69% | 1006.1 hPa | 0.25 mm | - | - | - |
| 1777956958 | 8.89° C | 68% | 1006.3 hPa | 0.25 mm | - | - | - |
| 1777956741 | 8.89° C | 67% | 1006.4 hPa | 0.25 mm | - | - | - |
| 1777956358 | 8.89° C | 67% | 1006.3 hPa | 0.25 mm | - | - | - |
| 1777956058 | 8.89° C | 69% | 1006.3 hPa | 0.25 mm | - | - | - |
| 1777955758 | 9.44° C | 64% | 1006.3 hPa | 0 mm | - | - | - |
| 1777955540 | 10° C | 60% | 1006.1 hPa | 0 mm | - | - | - |
| 1777955240 | 10.56° C | 50% | 1006.1 hPa | 0 mm | - | - | - |
| 1777954856 | 10.56° C | 46% | 1006 hPa | 0 mm | - | - | - |
| 1777954556 | 10.56° C | 46% | 1006 hPa | 0 mm | - | - | - |
| 1777954256 | 11.11° C | 46% | 1005.9 hPa | 0 mm | - | - | - |
| 1777953956 | 11.11° C | 45% | 1005.7 hPa | 0 mm | - | - | - |
| 1777953656 | 11.11° C | 46% | 1005.5 hPa | 0 mm | - | - | - |
| 1777953356 | 11.11° C | 46% | 1005.5 hPa | 0 mm | - | - | - |
| 1777953056 | 11.11° C | 54% | 1005.3 hPa | 0 mm | - | - | - |
| 1777952757 | 11.11° C | 53% | 1005.2 hPa | 0 mm | - | - | - |
| 1777952452 | 11.11° C | 54% | 1004.9 hPa | 0 mm | - | - | - |
* Rain latest hour (hover to see other rain measurements)
** Current wind speed in m/s (hover to see current wind gust speed)